User: anonymous   Login
Location: Unspecified
(0.0000°N, 0.0000°E)
Time: 20:08:12
(UTC+00:00)
Language:

STARLINK-34664 - Orbit

View from above orbital plane
View from above orbital plane
View from above satellite
View from above satellite

Ground track
Ground track

The orbit is defined by the following mean orbital elements,

1 64806U          26145.41095347 +.00000000 +00000-0 +20193-3 0 00006
2 64806  70.0005 300.8210 0002469 272.9189  87.1687 14.98335405    00
Epoch (UTC): 25 May 2026 09:51:46
Eccentricity: 0.0002469
inclination: 70.0005°
perigee height: 570 km
apogee height: 574 km
right ascension of ascending node: 300.8210°
argument of perigee: 272.9189°
revolutions per day: 14.98335405
mean anomaly at epoch: 87.1687°

The dashed part of the orbit path shows where the satellite is in the earth's shadow,  

DLR